Henderson, NV

1:44 AM PDT on June 24, 2017 (GMT -0700)
Henderson

Weather History for KHND - July, 2014

Change the Weather History Date:

Monday, July 7, 2014

  Actual Average (KLAS) Record (KLAS)
Temperature  
Mean Temperature 90 °F -  
Max Temperature 100 °F 103 °F 114 °F (1989)
Min Temperature 79 °F 76 °F 62 °F (1939)
Cooling Degree Days 24    
Growing Degree Days 40 (Base 50)    
Moisture  
Dew Point 57 °F    
Average Humidity 37    
Maximum Humidity 56    
Minimum Humidity 17    
Precipitation  
Precipitation 0.16 in - - ()
Sea Level Pressure  
Sea Level Pressure 29.86 in    
Wind  
Wind Speed 7 mph (SSE)    
Max Wind Speed 28 mph    
Max Gust Speed 37 mph    
Visibility 9 miles    
Events Rain , Thunderstorm    
Averages and records for this station are not official NWS values.
T = Trace of Precipitation, MM = Missing Value Source: NWS Daily Summary

Daily Weather History Graph

Daily Weather History Graph

Search for Another Location

Airport or City:

Trip Planner

Search our weather history database for the weather conditions in past years. The results will help you decide how hot, cold, wet, or windy it might be!

Date:

Astronomy

Jul. 07, 2014 Rise Set
Actual Time 5:30 AM PDT 8:00 PM PDT
Civil Twilight 5:00 AM PDT 8:30 PM PDT
Nautical Twilight 4:23 AM PDT 9:06 PM PDT
Astronomical Twilight 3:42 AM PDT 9:47 PM PDT
Moon 3:12 PM PDT (7/7) 1:20 AM PDT (7/7)
Length of Visible Light 15h 29m
Length of Day
14h 29m
Waxing Gibbous, 73% of the Moon is Illuminated
Jul 7
Waxing Gibbous
Jul 12
Full
Jul 18
Last Quarter
Jul 26
New
Aug 3
First Quarter

Hourly Weather History & Observations

Time (PDT) Temp. Heat Index Dew Point Humidity Pressure Visibility Wind Dir Wind Speed Gust Speed Precip Events Conditions
12:56 AM 79.9 °F - 63.0 °F 56% 29.89 in 10.0 mi SW 5.8 mph - N/A   Partly Cloudy
1:56 AM 79.9 °F - 61.9 °F 54% 29.88 in 10.0 mi ESE 5.8 mph - N/A   Clear
2:39 AM 80.6 °F 81.8 °F 62.6 °F 54% 29.96 in 10.0 mi ESE 5.8 mph - N/A Thunderstorm Partly Cloudy
2:56 AM 81.0 °F 81.7 °F 61.0 °F 50% 29.87 in 10.0 mi East 6.9 mph - N/A Thunderstorm Mostly Cloudy
3:05 AM 80.6 °F 81.5 °F 60.8 °F 51% 29.96 in 10.0 mi Calm Calm - N/A   Mostly Cloudy
3:56 AM 79.9 °F - 61.9 °F 54% 29.86 in 10.0 mi SW 6.9 mph - N/A   Clear
4:56 AM 79.0 °F - 61.9 °F 56% 29.85 in 10.0 mi SSE 6.9 mph - N/A   Clear
5:56 AM 79.0 °F - 61.0 °F 54% 29.85 in 10.0 mi SE 5.8 mph - N/A   Clear
6:56 AM 81.0 °F 81.6 °F 59.9 °F 49% 29.87 in 10.0 mi SSE 6.9 mph - N/A   Clear
7:56 AM 82.9 °F 83.2 °F 59.9 °F 46% 29.89 in 10.0 mi Calm Calm - N/A   Clear
8:56 AM 86.0 °F 84.9 °F 56.8 °F 37% 29.89 in 10.0 mi Calm Calm - N/A   Clear
9:56 AM 88.9 °F 87.7 °F 57.9 °F 35% 29.89 in 10.0 mi Calm Calm - N/A   Clear
11:56 AM 93.9 °F 92.2 °F 55.9 °F 28% 29.88 in 10.0 mi Variable 3.5 mph - N/A   Partly Cloudy
12:56 PM 97.0 °F 95.0 °F 54.9 °F 24% 29.86 in 10.0 mi NE 5.8 mph - N/A   Clear
1:56 PM 99.0 °F 96.9 °F 54.0 °F 22% 29.84 in 10.0 mi NE 8.1 mph - N/A   Clear
2:56 PM 100.9 °F - 52.0 °F 19% 29.80 in 10.0 mi Variable 4.6 mph - N/A   Clear
3:56 PM 99.9 °F - 52.9 °F 21% 29.77 in 10.0 mi Calm Calm - N/A   Clear
4:56 PM 100.9 °F - 52.9 °F 20% 29.75 in 10.0 mi SW 11.5 mph - N/A   Clear
5:56 PM 99.9 °F - 50.9 °F 19% 29.74 in 10.0 mi Calm Calm - N/A   Clear
6:56 PM 100.9 °F - 48.9 °F 17% 29.74 in 10.0 mi WNW 5.8 mph - N/A   Clear
7:56 PM 99.9 °F - 50.0 °F 19% 29.75 in 10.0 mi Calm Calm - N/A   Clear
8:22 PM 96.8 °F 96.2 °F 59.0 °F 28% 29.85 in 10.0 mi SW 27.6 mph 32.2 mph 0.00 in Rain Light Rain
8:39 PM 87.8 °F 86.1 °F 55.4 °F 33% 29.91 in 3.0 mi Variable 6.9 mph - 0.09 in Rain Heavy Rain
8:56 PM 86.0 °F 84.9 °F 56.8 °F 37% 29.81 in 3.0 mi SSW 27.6 mph 36.8 mph 0.15 in Rain Heavy Rain
9:05 PM 84.2 °F 83.8 °F 59.0 °F 42% 29.90 in 4.0 mi South 15.0 mph 23.0 mph 0.03 in Rain , Thunderstorm Light Thunderstorms and Rain
9:10 PM 86.0 °F 84.9 °F 57.2 °F 37% 29.90 in 5.0 mi SSW 15.0 mph 19.6 mph 0.04 in Rain , Thunderstorm Light Thunderstorms and Rain
10:10 PM 93.2 °F - 50.0 °F 23% 29.93 in 10.0 mi WNW 16.1 mph 28.8 mph 0.00 in Rain Light Rain
10:56 PM 84.9 °F 84.2 °F 57.9 °F 40% 29.84 in 10.0 mi East 15.0 mph 20.7 mph 0.01 in Rain Light Rain
11:05 PM 82.4 °F 82.9 °F 60.8 °F 48% 29.94 in 10.0 mi East 8.1 mph 20.7 mph 0.00 in Rain Light Rain
11:56 PM 82.9 °F 83.7 °F 61.9 °F 49% 29.90 in 10.0 mi North 9.2 mph - 0.00 in   Scattered Clouds